Location: Unspecified
(40.9447°N, 78.9903°W)
Time: 13:48:42
(UTC-05:00)

BlueWalker 3 - Visible Passes

Search period start: 09 December 2022 00:00
Search period end: 19 December 2022 00:00
Orbit: 501 x 518 km, 53.2° (Epoch: 09 December)

Date Brightness Start Highest point End Pass type
(mag) Time Alt. Az. Time Alt. Az. Time Alt. Az.
09 Dec 1.8 18:29:50 10° NW 18:33:43 66° NE 18:34:13 58° E visible
10 Dec 1.8 18:11:24 10° NW 18:15:18 71° NE 18:17:27 25° ESE visible
10 Dec 5.0 19:51:15 10° W 19:52:20 13° WSW 19:52:20 13° WSW visible
11 Dec 1.8 17:52:58 10° NW 17:56:53 76° NE 18:00:45 10° SE visible
11 Dec 4.8 19:33:00 10° W 19:35:04 14° SW 19:36:00 13° SW visible
12 Dec 1.9 17:34:32 10° NW 17:38:27 81° NE 17:42:20 10° SE visible
12 Dec 5.0 19:14:46 10° W 19:16:37 13° SW 19:18:26 10° SSW visible
13 Dec 1.9 17:16:06 10° NW 17:20:01 86° NE 17:23:54 10° SE visible
13 Dec 5.1 18:56:35 10° WSW 18:58:07 12° SW 18:59:41 10° SSW visible
14 Dec 5.3 18:38:29 10° WSW 18:39:40 11° SW 18:40:50 10° SW visible
15 Dec 5.6 18:20:35 10° WSW 18:21:10 10° SW 18:21:44 10° SW visible
